Bangor, ME

8:50 PM EST on December 17, 2017 (GMT -0500)
Bangor International

Weather History for KBGR - October, 2014

Change the Weather History Date:

Saturday, October 11, 2014

  Actual Average Record
Temperature  
Mean Temperature 44 °F 49 °F  
Max Temperature 54 °F 60 °F 80 °F (1930)
Min Temperature 34 °F 38 °F 22 °F (1952)
Degree Days  
Heating Degree Days 21 16  
Month to date heating degree days 128 157  
Since 1 July heating degree days 363 429  
Cooling Degree Days 0 0  
Month to date cooling degree days 0 0  
Year to date cooling degree days 361 317  
Moisture  
Dew Point 36 °F    
Average Humidity 73    
Maximum Humidity 92    
Minimum Humidity 54    
Precipitation  
Precipitation 0.00 in 0.14 in 0.97 in (1950)
Month to date precipitation 1.79 1.52  
Year to date precipitation 30.42 31.60  
Snow  
Snow 0.00 in 0.00 in 0.00 in (2002)
Month to date snowfall 0.0 0.0  
Since 1 July snowfall 0.0 0.0  
Since 1 September snowfall 0.0 0.0  
Snow Depth 0.00 in    
Sea Level Pressure  
Sea Level Pressure 30.10 in    
Wind  
Wind Speed 2 mph (WSW)    
Max Wind Speed 7 mph    
Max Gust Speed 8 mph    
Visibility 10 miles    
Events      
T = Trace of Precipitation, MM = Missing Value Source: NWS Daily Summary

Daily Weather History Graph

Daily Weather History Graph

Search for Another Location

Airport or City:

Trip Planner

Search our weather history database for the weather conditions in past years. The results will help you decide how hot, cold, wet, or windy it might be!

Date:

Astronomy

Oct. 11, 2014 Rise Set
Actual Time 6:45 AM EDT 5:57 PM EDT
Civil Twilight 6:16 AM EDT 6:26 PM EDT
Nautical Twilight 5:42 AM EDT 7:00 PM EDT
Astronomical Twilight 5:08 AM EDT 7:34 PM EDT
Moon 8:14 PM EDT (10/11) 10:13 AM EDT (10/11)
Length of Visible Light 12h 10m
Length of Day
11h 12m
Waning Gibbous, 87% of the Moon is Illuminated
Oct 11
Waning Gibbous
Oct 15
Last Quarter
Oct 23
New
Oct 30
First Quarter
Nov 6
Full

Hourly Weather History & Observations

Time (EDT) Temp. Windchill Dew Point Humidity Pressure Visibility Wind Dir Wind Speed Gust Speed Precip Events Conditions
12:53 AM 39.9 °F 35.8 °F 34.0 °F 79% 30.10 in 10.0 mi NNW 5.8 mph - N/A   Scattered Clouds
1:53 AM 39.9 °F 37.8 °F 34.0 °F 79% 30.10 in 10.0 mi South 3.5 mph - N/A   Mostly Cloudy
2:53 AM 37.0 °F - 34.0 °F 89% 30.11 in 10.0 mi Calm Calm - N/A   Mostly Cloudy
3:53 AM 36.0 °F 33.3 °F 34.0 °F 93% 30.12 in 10.0 mi SSW 3.5 mph - N/A   Mostly Cloudy
4:53 AM 35.6 °F 32.8 °F 33.8 °F 93% 30.10 in 10.0 mi SW 3.5 mph - N/A   Mostly Cloudy
5:53 AM 35.6 °F - 33.8 °F 93% 30.12 in 10.0 mi Calm Calm - N/A   Mostly Cloudy
6:53 AM 35.1 °F - 33.1 °F 92% 30.14 in 10.0 mi Calm Calm - N/A   Overcast
7:53 AM 39.2 °F - 35.6 °F 87% 30.15 in 10.0 mi Calm Calm - N/A   Overcast
8:53 AM 42.1 °F - 37.9 °F 85% 30.16 in 10.0 mi Calm Calm - N/A   Overcast
9:53 AM 44.1 °F - 39.0 °F 82% 30.14 in 10.0 mi Calm Calm - N/A   Overcast
10:53 AM 46.0 °F - 39.0 °F 76% 30.13 in 10.0 mi Calm Calm - N/A   Overcast
11:53 AM 48.0 °F - 37.0 °F 66% 30.12 in 10.0 mi Calm Calm - N/A   Overcast
12:53 PM 48.9 °F - 37.9 °F 66% 30.11 in 10.0 mi Calm Calm - N/A   Overcast
1:53 PM 51.1 °F - 37.9 °F 61% 30.09 in 10.0 mi Calm Calm - N/A   Overcast
2:53 PM 52.0 °F - 37.0 °F 57% 30.07 in 10.0 mi SE 4.6 mph - N/A   Mostly Cloudy
3:53 PM 53.1 °F - 37.0 °F 55% 30.05 in 10.0 mi Calm Calm - N/A   Overcast
4:53 PM 51.8 °F - 35.6 °F 54% 30.05 in 10.0 mi West 4.6 mph - N/A   Mostly Cloudy
5:53 PM 51.1 °F - 36.0 °F 56% 30.06 in 10.0 mi WNW 4.6 mph - N/A   Mostly Cloudy
6:53 PM 46.9 °F - 37.9 °F 71% 30.07 in 10.0 mi Calm Calm - N/A   Mostly Cloudy
7:53 PM 44.1 °F 42.5 °F 37.9 °F 79% 30.07 in 10.0 mi WSW 3.5 mph - N/A   Scattered Clouds
8:53 PM 41.0 °F - 37.0 °F 86% 30.08 in 10.0 mi Calm Calm - N/A   Partly Cloudy
9:53 PM 41.0 °F - 37.0 °F 86% 30.08 in 10.0 mi Calm Calm - N/A   Scattered Clouds
10:53 PM 39.9 °F - 37.0 °F 89% 30.09 in 10.0 mi Calm Calm - N/A   Mostly Cloudy
11:53 PM 37.9 °F - 35.1 °F 89% 30.09 in 10.0 mi Calm Calm - N/A   Scattered Clouds